カタログに戻る

STARLINK-11293

運用中通信VLEO
NORAD 61249·PAYLOAD·🇺🇸 United States

打ち上げ Sep 25, 2024 から Vandenberg Space Force Base

Loading…

次のパス (今後24時間)

TLE

最新Source: CelesTrak SupGP

元期: Sep 14, 2026, 21:01 UTC

1 61249C 24175G   26257.87618056  .00057260  00000+0  47136-3 0  2574
2 61249  53.1575 203.3257 0001100  99.7660 297.8542 15.69696812    12

AllMySatでSTARLINK-11293をリアルタイム追跡

Download on the App Store